Stündliche Wetter Abay

Heute, 22 Juni, Dienstag

Zeit Temperatur Niederschläge Wind Luftdruck Luftfeuchtigkeit
00:00 +23°C° 0 mm 1 m/S 715 mmHg 37%
01:00 +21°C° 0 mm 2 m/S 715 mmHg 35%
02:00 +20°C° 0 mm 2 m/S 715 mmHg 34%
03:00 +19°C° 0 mm 2 m/S 715 mmHg 34%
04:00 +18°C° 0 mm 2 m/S 716 mmHg 34%
05:00 +17°C° 0 mm 2 m/S 716 mmHg 34%
06:00 +19°C° 0 mm 2 m/S 716 mmHg 31%
07:00 +20°C° 0 mm 3 m/S 717 mmHg 29%
08:00 +22°C° 0 mm 3 m/S 717 mmHg 26%
09:00 +25°C° 0 mm 3 m/S 717 mmHg 24%
10:00 +26°C° 0 mm 4 m/S 717 mmHg 21%
11:00 +28°C° 0 mm 4 m/S 717 mmHg 19%
12:00 +29°C° 0 mm 4 m/S 716 mmHg 18%
13:00 +30°C° 0 mm 5 m/S 716 mmHg 17%
14:00 +32°C° 0 mm 5 m/S 716 mmHg 17%
15:00 +30°C° 0 mm 5 m/S 716 mmHg 17%
16:00 +30°C° 0 mm 6 m/S 716 mmHg 17%
17:00 +29°C° 0 mm 6 m/S 716 mmHg 18%
18:00 +27°C° 0 mm 6 m/S 716 mmHg 20%
19:00 +26°C° 0 mm 5 m/S 716 mmHg 22%
20:00 +23°C° 0 mm 4 m/S 716 mmHg 24%
21:00 +21°C° 0 mm 5 m/S 716 mmHg 27%
22:00 +20°C° 0 mm 5 m/S 716 mmHg 30%
23:00 +19°C° 0 mm 5 m/S 716 mmHg 32%

Morgen, 23 Juni, Mittwoch

Zeit Temperatur Niederschläge Wind Luftdruck Luftfeuchtigkeit
00:00 +17°C° 0 mm 5 m/S 716 mmHg 35%
01:00 +17°C° 0 mm 4 m/S 716 mmHg 37%
02:00 +16°C° 0 mm 3 m/S 716 mmHg 39%
03:00 +16°C° 0 mm 3 m/S 716 mmHg 41%
04:00 +15°C° 0 mm 2 m/S 716 mmHg 42%
05:00 +15°C° 0 mm 2 m/S 716 mmHg 43%
06:00 +18°C° 0 mm 2 m/S 716 mmHg 37%
07:00 +20°C° 0 mm 2 m/S 716 mmHg 30%
08:00 +24°C° 0 mm 3 m/S 717 mmHg 24%
09:00 +26°C° 0 mm 3 m/S 717 mmHg 22%
10:00 +27°C° 0 mm 4 m/S 716 mmHg 19%
11:00 +29°C° 0 mm 4 m/S 716 mmHg 16%
12:00 +30°C° 0 mm 4 m/S 716 mmHg 15%
13:00 +32°C° 0 mm 4 m/S 716 mmHg 14%
14:00 +33°C° 0 mm 4 m/S 716 mmHg 13%
15:00 +33°C° 0 mm 4 m/S 716 mmHg 13%
16:00 +33°C° 0 mm 4 m/S 716 mmHg 13%
17:00 +33°C° 0 mm 4 m/S 715 mmHg 13%
18:00 +30°C° 0 mm 4 m/S 715 mmHg 16%
19:00 +28°C° 0 mm 4 m/S 715 mmHg 19%
20:00 +25°C° 0 mm 3 m/S 715 mmHg 23%
21:00 +24°C° 0 mm 3 m/S 715 mmHg 25%
22:00 +21°C° 0 mm 2 m/S 715 mmHg 28%
23:00 +21°C° 0 mm 1 m/S 714 mmHg 30%

übermorgen, 24 Juni, Donnerstag

Zeit Temperatur Niederschläge Wind Luftdruck Luftfeuchtigkeit
00:00 +20°C° 0 mm 1 m/S 714 mmHg 31%
01:00 +20°C° 0 mm 1 m/S 714 mmHg 32%
02:00 +18°C° 0 mm 2 m/S 713 mmHg 33%
03:00 +18°C° 0 mm 2 m/S 713 mmHg 34%
04:00 +18°C° 0 mm 2 m/S 713 mmHg 34%
05:00 +18°C° 0 mm 2 m/S 713 mmHg 34%
06:00 +22°C° 0 mm 1 m/S 713 mmHg 29%
07:00 +25°C° 0 mm 1 m/S 713 mmHg 24%
08:00 +26°C° 0 mm 0 m/S 713 mmHg 19%
09:00 +29°C° 0 mm 1 m/S 713 mmHg 18%
10:00 +31°C° 0 mm 2 m/S 713 mmHg 16%
11:00 +34°C° 0 mm 2 m/S 713 mmHg 14%
12:00 +35°C° 0 mm 3 m/S 712 mmHg 13%
13:00 +36°C° 0 mm 5 m/S 712 mmHg 12%
14:00 +38°C° 0 mm 6 m/S 712 mmHg 12%
15:00 +38°C° 0 mm 7 m/S 712 mmHg 14%
16:00 +37°C° 0 mm 8 m/S 712 mmHg 16%
17:00 +35°C° 0 mm 9 m/S 712 mmHg 18%
18:00 +32°C° 0 mm 8 m/S 712 mmHg 27%
19:00 +29°C° 0 mm 7 m/S 712 mmHg 35%
20:00 +26°C° 0 mm 6 m/S 713 mmHg 43%
21:00 +22°C° 0.4 mm 4 m/S 713 mmHg 54%
22:00 +20°C° 0.4 mm 3 m/S 713 mmHg 65%
23:00 +18°C° 0.4 mm 2 m/S 714 mmHg 75%

25 Juni, Freitag

Zeit Temperatur Niederschläge Wind Luftdruck Luftfeuchtigkeit
00:00 +18°C° 0.2 mm 1 m/S 714 mmHg 77%
01:00 +18°C° 0.2 mm 1 m/S 713 mmHg 78%
02:00 +16°C° 0.2 mm 1 m/S 713 mmHg 80%
03:00 +16°C° 0 mm 1 m/S 713 mmHg 79%
04:00 +16°C° 0 mm 1 m/S 714 mmHg 79%
05:00 +16°C° 0 mm 2 m/S 714 mmHg 78%
06:00 +17°C° 0 mm 2 m/S 714 mmHg 67%
07:00 +18°C° 0 mm 2 m/S 715 mmHg 56%
08:00 +20°C° 0 mm 2 m/S 716 mmHg 45%
09:00 +21°C° 0 mm 3 m/S 715 mmHg 38%
10:00 +24°C° 0 mm 3 m/S 715 mmHg 30%
11:00 +26°C° 0 mm 3 m/S 715 mmHg 22%
12:00 +27°C° 0 mm 4 m/S 715 mmHg 21%
13:00 +28°C° 0 mm 4 m/S 715 mmHg 19%
14:00 +29°C° 0 mm 5 m/S 715 mmHg 18%
15:00 +29°C° 0 mm 5 m/S 715 mmHg 17%
16:00 +29°C° 0 mm 6 m/S 715 mmHg 16%
17:00 +28°C° 0 mm 6 m/S 715 mmHg 15%
18:00 +27°C° 0 mm 6 m/S 715 mmHg 17%
19:00 +24°C° 0 mm 6 m/S 715 mmHg 19%
20:00 +22°C° 0 mm 6 m/S 715 mmHg 20%
21:00 +21°C° 0 mm 5 m/S 715 mmHg 24%
22:00 +20°C° 0 mm 5 m/S 715 mmHg 27%
23:00 +18°C° 0 mm 4 m/S 715 mmHg 30%

26 Juni, Samstag

Zeit Temperatur Niederschläge Wind Luftdruck Luftfeuchtigkeit
00:00 +18°C° 0 mm 4 m/S 715 mmHg 32%
01:00 +17°C° 0 mm 3 m/S 714 mmHg 34%
02:00 +16°C° 0 mm 3 m/S 714 mmHg 36%
03:00 +15°C° 0 mm 2 m/S 714 mmHg 37%
04:00 +15°C° 0 mm 2 m/S 714 mmHg 38%
05:00 +14°C° 0 mm 2 m/S 714 mmHg 39%
06:00 +17°C° 0 mm 3 m/S 714 mmHg 33%
07:00 +20°C° 0 mm 4 m/S 715 mmHg 28%
08:00 +23°C° 0 mm 4 m/S 715 mmHg 23%
09:00 +25°C° 0 mm 5 m/S 715 mmHg 20%
10:00 +27°C° 0 mm 6 m/S 715 mmHg 18%
11:00 +29°C° 0 mm 7 m/S 715 mmHg 15%
12:00 +30°C° 0 mm 7 m/S 715 mmHg 14%
13:00 +32°C° 0 mm 7 m/S 714 mmHg 13%
14:00 +33°C° 0 mm 6 m/S 714 mmHg 12%
15:00 +33°C° 0 mm 6 m/S 714 mmHg 12%
16:00 +32°C° 0 mm 6 m/S 714 mmHg 12%
17:00 +32°C° 0 mm 7 m/S 714 mmHg 13%
18:00 +29°C° 0 mm 6 m/S 714 mmHg 15%
19:00 +27°C° 0 mm 5 m/S 714 mmHg 17%
20:00 +25°C° 0 mm 4 m/S 714 mmHg 19%
21:00 +22°C° 0 mm 4 m/S 713 mmHg 21%
22:00 +21°C° 0 mm 4 m/S 713 mmHg 23%
23:00 +20°C° 0 mm 3 m/S 713 mmHg 25%

27 Juni, Sonntag

Zeit Temperatur Niederschläge Wind Luftdruck Luftfeuchtigkeit
00:00 +19°C° 0 mm 3 m/S 713 mmHg 26%
01:00 +18°C° 0 mm 2 m/S 712 mmHg 27%
02:00 +17°C° 0 mm 2 m/S 712 mmHg 28%
03:00 +17°C° 0 mm 2 m/S 712 mmHg 29%
04:00 +17°C° 0 mm 2 m/S 712 mmHg 29%
05:00 +18°C° 0 mm 1 m/S 712 mmHg 30%
06:00 +21°C° 0 mm 1 m/S 712 mmHg 25%
07:00 +24°C° 0 mm 1 m/S 713 mmHg 21%
08:00 +25°C° 0 mm 0 m/S 713 mmHg 17%
09:00 +29°C° 0 mm 1 m/S 713 mmHg 15%
10:00 +31°C° 0 mm 2 m/S 713 mmHg 13%
11:00 +34°C° 0 mm 3 m/S 713 mmHg 11%
12:00 +36°C° 0 mm 3 m/S 713 mmHg 10%
13:00 +37°C° 0 mm 3 m/S 712 mmHg 9%
14:00 +38°C° 0 mm 3 m/S 712 mmHg 8%
15:00 +38°C° 0 mm 4 m/S 712 mmHg 9%
16:00 +38°C° 0 mm 4 m/S 712 mmHg 9%
17:00 +38°C° 0 mm 4 m/S 712 mmHg 9%
18:00 +36°C° 0 mm 4 m/S 712 mmHg 12%
19:00 +33°C° 0 mm 4 m/S 711 mmHg 15%
20:00 +30°C° 0 mm 4 m/S 711 mmHg 18%
21:00 +28°C° 0 mm 3 m/S 711 mmHg 19%
22:00 +27°C° 0 mm 3 m/S 711 mmHg 21%
23:00 +26°C° 0 mm 3 m/S 711 mmHg 22%
Mehr zeigen

Wir brauchen deine Erlaubnis

Meteoprog und unser Service Anbieter werden persönliche Daten aufbewahren, so wie Cookies, Geräte Bezeichnung oder ähnliche Technologien von deinem Gerät und Prozess, so wie Persönliche Daten Inhalte und Werbungen, genauso wie social Media und den Verkehr zu analysieren.

  • Aufbewahrung und/oder Zugang zu deiner Geräte Informationen.

    Cookies, Geräte Bezeichnung oder andere Informationen, können aufbewahrt oder Zugang zu deinem Gerät erhalten, für den Grund, der oben angegeben wird.

  • Personalisierte Werbung und Inhalte, Messungen, Einblick in das Publikum und Produkt Entwicklung.

    Werbungen und Inhalte können personalisiert werden, basierend auf ein Profil. Mehr Daten können besser personalisierte Werbungen und Inhalte hinzufügen. Werbung und Inhalte können gezeigt und gemessen werden. Einblicke über das Publikum, welche die Werbung gesehen haben und den Inhalt, können abgeleitet werden. So wie Daten können genutzt werden, um es zu verbessern oder die Benutzer Erfahrung zu verbessern das System und die Software.

Wenn du “Ich stimme zu” klickst, erlaubst du uns, die Cookies zu benutzen die Geräte Bezeichnung, den Web oder ähnliche Technologien zu benutzen. Deine Settings, können in deinem Gerät bei deinem Browser geändert werden.

Für den bestimmten Zweck, berechtigten Interessen beruhen darauf, mehr als auf den Inhalt. Du kannst mehr darüber in unseren Privaten und Cookie Politik lesen.